Buffalo, WY

5:13 PM MST on February 19, 2017 (GMT -0700)
Johnson County

Weather History for KBYG - April, 2014

Change the Weather History Date:

Friday, April 18, 2014

  Actual Average Record
Temperature  
Mean Temperature 53 °F 44 °F  
Max Temperature 70 °F 55 °F 77 °F (2001)
Min Temperature 35 °F 33 °F 10 °F (2013)
Degree Days  
Heating Degree Days 12 21  
Month to date heating degree days 447 427  
Since 1 July heating degree days 6687 6617  
Cooling Degree Days 0 0  
Month to date cooling degree days 0 0  
Year to date cooling degree days 0 0  
Growing Degree Days 4 (Base 50)    
Moisture  
Dew Point 30 °F    
Average Humidity 43    
Maximum Humidity 64    
Minimum Humidity 21    
Precipitation  
Precipitation 0.00 in 0.04 in 0.80 in (2000)
Month to date precipitation 0.59 0.58  
Year to date precipitation 1.56 2.27  
Sea Level Pressure  
Sea Level Pressure 29.68 in    
Wind  
Wind Speed 13 mph (SW)    
Max Wind Speed 40 mph    
Max Gust Speed 52 mph    
Visibility 10 miles    
Events      
T = Trace of Precipitation, MM = Missing Value Source: NWS Daily Summary

Daily Weather History Graph

Daily Weather History Graph

Search for Another Location

Airport or City:

Trip Planner

Search our weather history database for the weather conditions in past years. The results will help you decide how hot, cold, wet, or windy it might be!

Date:

Astronomy

Apr. 18, 2014 Rise Set
Actual Time 6:17 AM MDT 7:55 PM MDT
Civil Twilight 5:47 AM MDT 8:25 PM MDT
Nautical Twilight 5:10 AM MDT 9:03 PM MDT
Astronomical Twilight 4:30 AM MDT 9:43 PM MDT
Moon 11:48 PM MDT (4/18) 8:37 AM MDT (4/18)
Length of Visible Light 14h 38m
Length of Day
13h 37m
Waning Gibbous, 86% of the Moon is Illuminated
Apr 18
Waning Gibbous
Apr 22
Last Quarter
Apr 29
New
May 6
First Quarter
May 14
Full

Hourly Weather History & Observations

Time (MDT) Temp. Windchill Dew Point Humidity Pressure Visibility Wind Dir Wind Speed Gust Speed Precip Events Conditions
12:53 AM 46.0 °F 44.8 °F 26.1 °F 46% 29.75 in 10.0 mi Variable 3.5 mph - N/A   Clear
1:53 AM 42.1 °F 35.7 °F 28.0 °F 58% 29.74 in 10.0 mi West 11.5 mph - N/A   Clear
2:53 AM 41.0 °F 35.2 °F 28.0 °F 60% 29.73 in 10.0 mi SW 9.2 mph - N/A   Clear
3:53 AM 41.0 °F 38.0 °F 28.0 °F 60% 29.71 in 10.0 mi SSW 4.6 mph - N/A   Clear
4:53 AM 43.0 °F - 28.0 °F 56% 29.70 in 10.0 mi Calm Calm - N/A   Clear
5:53 AM 45.0 °F 41.8 °F 27.0 °F 49% 29.68 in 10.0 mi SSE 5.8 mph - N/A   Clear
6:53 AM 46.9 °F - 27.0 °F 46% 29.67 in 10.0 mi Variable 6.9 mph - N/A   Mostly Cloudy
7:53 AM 54.0 °F - 27.0 °F 35% 29.67 in 10.0 mi South 5.8 mph - N/A   Partly Cloudy
8:53 AM 55.0 °F - 27.0 °F 34% 29.65 in 10.0 mi South 11.5 mph - N/A   Clear
9:53 AM 63.0 °F - 30.9 °F 30% 29.60 in 10.0 mi South 13.8 mph - N/A   Clear
10:53 AM 66.0 °F - 30.0 °F 26% 29.56 in 10.0 mi SSE 24.2 mph 31.1 mph N/A   Clear
11:53 AM 68.0 °F - 27.0 °F 21% 29.55 in 10.0 mi SSW 13.8 mph 19.6 mph N/A   Clear
12:53 PM 68.0 °F - 28.9 °F 23% 29.56 in 10.0 mi NNW 10.4 mph 21.9 mph N/A   Clear
1:53 PM 69.1 °F - 37.0 °F 31% 29.57 in 10.0 mi North 16.1 mph 21.9 mph N/A   Mostly Cloudy
3:53 PM 62.1 °F - 36.0 °F 38% 29.65 in 10.0 mi SW 21.9 mph 26.5 mph N/A   Mostly Cloudy
4:14 PM 62.1 °F - 36.0 °F 38% 29.72 in 10.0 mi SW 11.5 mph 20.7 mph N/A   Partly Cloudy
4:53 PM 64.9 °F - 36.0 °F 34% 29.62 in 10.0 mi SE 8.1 mph - N/A   Clear
5:16 PM 66.0 °F - 32.0 °F 28% 29.69 in 10.0 mi SW 21.9 mph 40.3 mph N/A   Clear
5:53 PM 62.1 °F - 30.0 °F 30% 29.58 in 10.0 mi West 25.3 mph 43.7 mph N/A   Clear
6:53 PM 59.0 °F - 36.0 °F 42% 29.62 in 10.0 mi North 9.2 mph 24.2 mph N/A   Clear
7:53 PM 52.0 °F - 39.0 °F 61% 29.68 in 10.0 mi North 11.5 mph 21.9 mph N/A   Mostly Cloudy
9:53 PM 42.1 °F 32.3 °F 28.0 °F 58% 29.83 in 10.0 mi NNW 24.2 mph 40.3 mph N/A   Mostly Cloudy
10:53 PM 39.0 °F 30.6 °F 27.0 °F 62% 29.84 in 10.0 mi North 15.0 mph 26.5 mph N/A   Clear
11:53 PM 37.0 °F 29.8 °F 27.0 °F 67% 29.84 in 10.0 mi North 10.4 mph - N/A   Clear